Regional Weather Roundup
Issued by NWS

Home | Current Version | Previous Version | Graphics & Text | Print | Product List | Glossary On
Versions: 1 2 3 4 5 6 7 8 9 10 11 12 13 14 15 16 17 18 19 20 21 22 23 24 25 26 27 28 29 30 31 32 33 34 35 36 37 38 39 40 41 42 43 44 45 46 47 48 49 50
000
ASUS43 KFSD 210710
RWRSD

WEATHER ROUNDUP FOR SOUTH DAKOTA
NATIONAL WEATHER SERVICE SIOUX FALLS SD
200 AM CDT MON AUG 21 2017

NOTE: "FAIR" INDICATES FEW OR NO CLOUDS BELOW 12,000 FEET WITH NO
SIGNIFICANT WEATHER AND/OR OBSTRUCTIONS TO VISIBILITY.


SDZ001>005-009-010-012>017-210800-
NORTHWEST AND NORTH CENTRAL SOUTH DAKOTA

CITY           SKY/WX    TMP DP  RH WIND       PRES   REMARKS
BUFFALO          N/A     61  52  72 S26       29.91F
FAITH            N/A     61  54  77 NE13      30.07R
MOBRIDGE       CLOUDY    58  51  78 SE12      29.99R
$$

SDZ012>016-024>037-041>051-057-063-072>074-210800-
SOUTHWEST AND SOUTH CENTRAL SOUTH DAKOTA

CITY           SKY/WX    TMP DP  RH WIND       PRES   REMARKS
RAPID CTY ARPT PTCLDY    62  54  74 NE10      30.01S
PIERRE         MOCLDY    62  53  72 E10       30.00S
CUSTER         CLEAR     56  50  80 CALM      30.12F
ELLSWORTH AFB  MOCLDY    65  54  66 SE12      30.00S
PHILIP         CLOUDY    63  52  67 E13       29.99F
PINE RIDGE     MOCLDY    66  59  78 NE5       30.04R
SPEARFISH      FAIR      64  54  68 VRB3      30.00R
WINNER         FAIR      66  62  87 E7        29.98F
$$

SDZ004>011-016>023-039-040-210800-
NORTHEAST SOUTH DAKOTA

CITY           SKY/WX    TMP DP  RH WIND       PRES   REMARKS
ABERDEEN       CLEAR     54  53  97 CALM      30.03R
WATERTOWN      CLEAR     56  54  93 N6        30.01F
BROOKINGS      PTCLDY    61  59  93 CALM      30.01
SISSETON         N/A     56  55  97 CALM      30.01F
$$

SDZ017-020-022-023-036>040-048>070-210800-
SOUTHEAST SOUTH DAKOTA

CITY           SKY/WX    TMP DP  RH WIND       PRES   REMARKS
SIOUX FALLS    MOCLDY    65  63  93 NE7       30.00R
HURON          CLEAR     58  56  93 CALM      29.98F
CHAMBERLAIN    CLEAR     64  59  85 E5        29.98F
MITCHELL       CLEAR     61  58  90 N5        29.97F
YANKTON        PTCLDY    68  65  90 NE8       29.96S
$$

ABBREVIATIONS USED IN REMARKS
   TC - TEMPERATURE IN CELSIUS
  WCI - WIND CHILL INDEX
   HX - HEAT INDEX
  VSB - VISIBILITY





USA.gov is the U.S. government's official web portal to all federal, state and local government web resources and services.